This demonstration page uses our WeatherBlox Daily Observations layout. Learn more.

Left ArrowRight Arrow

39.01783, -85.05884

Hourly Observations for February 20, 2017

Temp ( °F °C ) Dew Point ( °F °C ) Humidity (%) Winds ( mph kmh ) Pressure ( in mb ) Visibility ( mi km ) Precip ( " mm )
12:52 am 00:52 Partly Cloudy with Mist and Fog 40 4.4 39 3.9 97 97 Calm 30.17 1022 4 6 0.00 0.00
1:38 am 01:38 Mostly Cloudy with Fog 36 2.2 35 1.7 97 97 Calm 30.21 1023 0 0 0.00 0.00
1:43 am 01:43 Mostly Cloudy with Fog 36 2.2 36 2.2 100 100 Calm 30.21 1023 0 0 0.00 0.00
1:52 am 01:52 Mostly Cloudy with Fog 36 2.2 36 2.2 100 100 Calm 30.17 1022 0 0 0.00 0.00
2:23 am 02:23 Mostly Cloudy with Mist and Fog 41 5 40 4.4 96 96 SE 3 6 30.21 1023 1 1 0.00 0.00
2:52 am 02:52 Mostly Cloudy with Mist and Fog 39 3.9 39 3.9 100 100 Calm 30.17 1022 1 1 0.00 0.00
2:54 am 02:54 Mostly Clear with Mist and Fog 39 4 39 4 100 100 Calm 30.21 1023 2 2 0.00 0.00
3:01 am 03:01 Mostly Clear with Mist and Fog 40 4.4 40 4.4 100 100 Calm 30.21 1023 1 1 0.00 0.00
3:08 am 03:08 Mostly Clear with Mist and Fog 36 2 36 2 100 100 Calm 30.24 1024 2 2 0.00 0.00
3:19 am 03:19 Mostly Cloudy with Fog 36 2.2 35 1.7 97 97 Calm 30.18 1022 0 0 0.00 0.00
3:52 am 03:52 Mostly Cloudy with Fog 37 2.8 37 2.8 100 100 Calm 30.17 1022 0 0 0.00 0.00
4:03 am 04:03 Mostly Cloudy with Fog 37 3 37 3 100 100 Calm 30.21 1023 5 8 0.00 0.00
4:21 am 04:21 Mostly Cloudy with Fog 37 2.8 37 2.8 100 100 NE 3 6 30.21 1023 0 0 0.00 0.00
4:52 am 04:52 Mostly Cloudy with Fog 39 3.9 39 3.9 100 100 E 3 6 30.18 1022 0 0 0.00 0.00
5:52 am 05:52 Mostly Cloudy with Fog 39 3.9 39 3.9 100 100 E 3 6 30.21 1023 0 0 0.00 0.00
6:43 am 06:43 Mostly Cloudy with Fog 38 3.3 38 3.3 100 100 Calm 30.24 1024 1 1 0.00 0.00
6:52 am 06:52 Mostly Cloudy with Fog 38 3.3 38 3.3 100 100 ESE 3 6 30.22 1023 1 1 0.00 0.00
7:29 am 07:29 Mostly Cloudy with Fog 38 3.3 37 2.8 97 97 ESE 3 6 30.27 1025 1 2 0.00 0.00
7:52 am 07:52 Mostly Cloudy with Fog 38 3.3 38 3.3 100 100 ESE 3 6 30.24 1024 1 2 0.00 0.00
8:52 am 08:52 Mostly Cloudy with Fog 41 5 41 5 100 100 ESE 5 7 30.24 1024 1 2 0.00 0.00
9:04 am 09:04 Mostly Cloudy with Fog 43 6 43 6 100 100 E 6 9 30.27 1025 5 8 0.00 0.00
9:28 am 09:28 Mostly Cloudy with Fog 44 6.7 44 6.7 100 100 E 5 7 30.27 1025 5 8 0.00 0.00
9:52 am 09:52 Mostly Cloudy with Fog 45 7.2 45 7.2 100 100 E 6 9 30.23 1024 5 8 0.00 0.00
10:11 am 10:11 Mostly Cloudy with Fog 46 7.8 46 7.8 100 100 E 6 9 30.27 1025 1 2 0.00 0.00
10:25 am 10:25 Cloudy with Mist and Fog 46 7.8 46 7.8 100 100 E 8 13 30.24 1024 1 2 0.00 0.00
10:26 am 10:26 Mostly Cloudy with Mist and Fog 46 7.8 46 7.8 100 100 E 7 11 30.24 1024 1 2 0.00 0.00
10:34 am 10:34 Mostly Cloudy with Mist and Fog 48 9 48 9 100 100 ESE 7 11 30.24 1024 1 2 0.00 0.00
10:41 am 10:41 Mostly Cloudy with Mist and Fog 48 8.9 47 8.3 96 96 ESE 6 9 30.24 1024 3 5 0.00 0.00
10:52 am 10:52 Mostly Cloudy with Mist and Fog 48 8.9 48 8.9 100 100 ESE 5 7 30.22 1023 3 5 0.00 0.00
11:52 am 11:52 Mostly Cloudy 56 13.3 48 8.9 75 75 SE 9 15 30.21 1023 10 16 0.00 0.00
12:52 pm 12:52 Mostly Cloudy 58 14.4 49 9.4 72 72 VRB 6 9 30.20 1023 10 16 0.00 0.00
1:52 pm 13:52 Cloudy 59 15 49 9.4 69 69 ESE 10 17 30.16 1021 10 16 0.00 0.00
2:52 pm 14:52 Mostly Cloudy 63 17.2 50 10 63 63 ESE 8 13 30.14 1021 10 16 0.00 0.00
3:52 pm 15:52 Mostly Cloudy 64 17.8 48 8.9 56 56 E 8 13 30.11 1020 10 16 0.00 0.00
4:52 pm 16:52 Cloudy 63 17.2 48 8.9 58 58 E 7 11 30.11 1020 10 16 0.00 0.00
5:52 pm 17:52 Cloudy 62 16.7 48 8.9 60 60 ESE 8 13 30.11 1020 10 16 0.00 0.00
6:52 pm 18:52 Cloudy 59 15 47 8.3 64 64 ESE 5 7 30.11 1020 10 16 0.00 0.00
7:52 pm 19:52 Cloudy 57 13.9 46 7.8 67 67 E 9 15 30.09 1019 10 16 0.00 0.00
8:52 pm 20:52 Cloudy 57 13.9 44 6.7 62 62 ESE 7 11 30.10 1019 10 16 0.00 0.00
9:52 pm 21:52 Mostly Cloudy 56 13.3 42 5.6 60 60 ESE 8 13 30.09 1019 10 16 0.00 0.00
10:52 pm 22:52 Cloudy 55 12.8 40 4.4 57 57 SE 9 15 30.07 1018 10 16 0.00 0.00
11:52 pm 23:52 Cloudy 55 12.8 40 4.4 57 57 ESE 10 17 30.03 1017 10 16 0.00 0.00

Powered by AerisWeather